Miscellaneous Local Product
Issued by NWS North Platte, NE

Home | Current Version | Previous Version | Text Only | Print | Product List | Glossary On
Versions: 1 2 3 4 5 6 7 8 9 10 11 12 13 14 15 16 17 18 19 20 21 22 23 24 25 26 27 28 29 30 31 32 33 34 35 36 37 38 39 40 41 42 43 44 45 46 47 48 49 50
000
AXUS43 KLBF 160510
MISLBF


WESTERN AND NORTH CENTRAL NEBRASKA HOURLY WEATHER ROUNDUP
NATIONAL WEATHER SERVICE NORTH PLATTE NE
1100 PM CST FRI FEB 15 2019

NOTE: "FAIR" INDICATES FEW OR NO CLOUDS BELOW 12,000 FEET WITH NO
SIGNIFICANT WEATHER AND/OR OBSTRUCTIONS TO VISIBILITY.

NOTE: STATIONS NOT REPORTING SKY/WEATHER AND PRESSURE ARE
PROVIDED BY RAWS AND APRS NETWORKS AND ARE NOT UNDER NATIONAL
WEATHER SERVICE QUALITY CONTROL.

...OBSERVATIONS IN AND NEAR THE EASTERN PANHANDLE OF NEBRASKA...

CITY           SKY/WX    TMP DP  RH WIND       PRES   REMARKS
PINE RIDGE     CLEAR    N/A N/A N/A S9G17     29.79F
GORDON         FAIR       3  -1  83 S3        29.81F
CHADRON        CLEAR     18  12  77 S14       29.77F WCI   4
ALLIANCE       MOCLDY    11  10  96 S16       29.79F WCI  -6
SIDNEY         CLEAR     14  11  87 SE8       29.79R WCI   3
CRESCENT LAKE    N/A     11   8  85 SE10G18     N/A  WCI  -2
$$

...OBSERVATIONS IN NORTHERN NEBRASKA AND FAR SOUTHERN SOUTH DAKOTA...

CITY           SKY/WX    TMP DP  RH WIND       PRES   REMARKS
WINNER         FAIR      11   4  73 SE13      30.01F WCI  -4
VALENTINE      CLOUDY    15   9  76 S12       29.95F WCI   2
AINSWORTH      CLOUDY    13  10  86 S10       29.97F WCI   0
O`NEILL        FAIR      10   6  84 SE6       30.06F WCI   1
THEDFORD       FLURRIES  13  11  91 S9        29.95F WCI   1
BROKEN BOW     CLOUDY    12   9  87 SE9       30.01S WCI   0
ORD            CLOUDY    12   7  80 SE6       30.06S WCI   3
ALBION         CLOUDY    11   7  81 CALM      30.10S
EWING            N/A     12   7  79 CALM        N/A
CHAMBERS         N/A      7  -4  59 CALM        N/A
BUTTE            N/A     10   4  75 SE8         N/A  WCI  -2
SPRINGVIEW       N/A     10   6  83 E5          N/A  WCI   2
VALENTINE NWR    N/A     12   8  85 S9          N/A  WCI   0
HALSEY           N/A     11   7  83 S6          N/A  WCI   2
$$

...OBSERVATIONS IN SOUTHWEST NEBRASKA AND FAR NORTHEAST COLORADO...

CITY           SKY/WX    TMP DP  RH WIND       PRES   REMARKS
WRAY           FAIR      16  12  86 E7        29.85  WCI   6
HOLYOKE        FAIR      18  12  79 SE13      29.85  WCI   4
IMPERIAL       CLEAR     10   6  84 SE9       29.90F WCI  -3
OGALLALA       FLURRIES   8   6  89 E5        29.91S WCI   0
NORTH PLATTE   CLOUDY    12   9  87 S7        29.97F WCI   1
MCCOOK         CLOUDY    14  10  84 E9        29.99F WCI   2
LEXINGTON      FLURRIES  13   9  83 SE6       30.04S WCI   4
GOTHENBURG       N/A     11   7  84 SE3         N/A
CALLAWAY         N/A     11   8  89 S9          N/A  WCI  -2
STAPLETON        N/A      9   6  88 CALM        N/A
$$

...OBSERVATIONS IN CENTRAL LINCOLN COUNTY AREA...

CITY           SKY/WX    TMP DP  RH WIND       PRES   REMARKS
N.P. AIRPORT   CLOUDY    12   9  87 S7        29.97F WCI   1
N.P. HILLCREST   N/A     11   9  90 SE8         N/A  WCI  -1
N.P. DOWNTOWN    N/A     11   8  88 CALM        N/A
N.P. SOUTHEAST   N/A     10   7  87 SE5         N/A  WCI   2
$$

...OBSERVATIONS ACROSS THE ROCKIES AND WESTERN HIGH PLAINS...

CITY           SKY/WX    TMP DP  RH WIND       PRES   REMARKS
SCOTTSBLUFF    CLEAR     13  11  92 E20       29.77F WCI  -5
KIMBALL        CLEAR     20  15  81 S7        29.74F WCI  11
CHEYENNE       CLEAR     26  19  74 E3        29.68F
DENVER         CLEAR     41  18  39 W7        29.64F
STEAMBOAT      FAIR      28  22  79 E6        29.69  WCI  21
COPPER MTN     CLEAR     19   3  49 S25       29.79  WCI   2
LEADVILLE      CLEAR     21   3  45 SE12      29.77F WCI   9
ASPEN          CLEAR     28   9  44 CALM      29.73F
GUNNISON       PTCLDY    18  15  88 N5        29.83S WCI  11
TELLURIDE      PTCLDY    28  10  47 SE10G18   29.87  WCI  19
LARAMIE        PTCLDY    30  19  63 SW12      29.66S WCI  20
CASPER         PTCLDY    25  22  88 N5        29.60F WCI  19
SHERIDAN       PTCLDY    14  12  92 SW6       29.56F WCI   5
JACKSON HOLE   CLOUDY    21  15  78 S10       29.64F WCI  10
YELLOWSTONE      N/A     16  10  77 CALM      29.60S
$$

...OBSERVATIONS ACROSS THE NORTHERN PLAINS...

CITY           SKY/WX    TMP DP  RH WIND       PRES   REMARKS
RAPID CITY     CLEAR      2  -2  83 S7        29.77F WCI -11
PIERRE         CLOUDY     7   3  84 SE13      30.03F WCI  -9
SIOUX FALLS    CLOUDY     7   1  76 NE3       30.13R
ABERDEEN       MOCLDY    -2  -8  76 CALM      30.15S
WILLISTON      FLURRIES   6  -1  73 SE8       29.90F WCI  -7
DICKINSON      CLOUDY     0  -5  79 SE17      29.83F HAZE    WCI -21
BISMARCK       CLOUDY    -1  -6  79 E8        30.06F WCI -15
FARGO          CLEAR    -12 -14  90 N6        30.19F WCI -26
$$

...OBSERVATIONS ACROSS THE CENTRAL AND SOUTHERN PLAINS...

CITY           SKY/WX    TMP DP  RH WIND       PRES   REMARKS
OMAHA          CLOUDY    11   5  77 CALM      30.17R
GRAND ISLAND   CLOUDY    12   6  77 E3        30.10S
KANSAS CITY    CLOUDY    15   7  70 N8        30.13R WCI   4
WICHITA        CLOUDY    18  14  84 NE14      30.07S WCI   4
DODGE CITY     CLOUDY    17  14  88 E6        29.98S FOG     WCI   9
OKLAHOMA CITY  CLOUDY    23  20  88 N14       30.00F WCI  11
DALLAS         MOCLDY    39  31  72 N17       29.94S WCI  30
AMARILLO       CLOUDY    27  24  89 E6        29.89S WCI  20
$$



USA.gov is the U.S. government's official web portal to all federal, state and local government web resources and services.